Dewpoint
66 72 77 76 76 76 76 76 76 76 75 75 75 74 74 74 74 74 75 74 74 73 72 72 71 71 72 72 71 72 72 73 73 72 72 72 72 72 72 71 69 69 70
69 73 77 76 76 75 75 75 76 77 75 75 75 74 74 74 73 74 74 74 73 73 72 72 72 72 72 72 72 73 73 74 73 71 72 72 71 71 71 71 70 70 70
69 73 75 77 76 76 75 74 75 76 75 74 74 74 74 74 73 73 73 73 73 72 71 72 71 72 71 72 72 72 73 74 74 72 72 70 70 71 70 71 71 71 70
70 72 74 77 77 77 76 76 76 75 75 73 74 74 74 74 73 73 73 73 72 72 72 71 71 71 71 72 72 73 73 73 73 72 71 67 67 71 71 71 71 71 71
69 71 75 77 77 77 76 76 76 75 74 73 73 74 74 73 73 72 73 72 72 72 72 72 71 71 72 72 73 73 72 74 73 70 70 69 68 72 72 72 71 71 70
66 72 76 76 77 76 76 75 75 75 74 73 73 74 74 74 73 72 72 72 72 72 72 71 71 71 72 72 73 73 73 74 71 70 69 69 70 73 72 70 70 70 71
71 73 74 76 77 77 76 75 75 74 74 74 74 74 74 74 73 72 72 73 73 72 72 72 71 71 71 72 73 73 73 73 70 69 69 71 72 73 71 71 71 71 70
70 72 73 76 77 77 76 76 76 76 75 75 75 74 74 74 73 73 72 72 73 72 72 72 72 72 72 72 73 73 73 72 70 69 69 72 73 73 71 72 71 71 69
70 73 73 73 74 76 75 76 77 76 76 75 75 75 74 73 73 73 73 73 72 72 72 72 72 72 72 72 72 73 72 72 71 69 69 72 73 73 72 71 72 71 70
69 72 73 73 74 74 75 76 76 76 76 75 74 73 73 73 73 73 74 74 73 72 72 72 73 72 72 72 72 72 72 70 69 68 69 70 74 73 71 71 72 72 71
70 71 72 73 73 74 74 74 75 74 73 72 71 72 73 72 72 71 72 72 72 72 72 71 72 72 73 72 72 72 71 67 65 69 70 72 73 73 72 72 72 72 71
67 69 70 71 71 72 73 74 72 73 72 73 73 74 73 70 72 71 71 72 71 71 72 72 72 72 72 71 71 71 70 67 67 70 70 72 72 72 73 73 72 72 72
68 69 72 71 71 71 70 71 73 72 72 72 72 72 73 72 71 70 72 72 72 72 71 73 73 72 70 70 70 69 69 69 69 70 70 72 73 72 72 73 73 72 71
66 66 71 71 71 71 70 69 70 71 71 71 70 72 70 70 69 71 71 71 71 72 72 72 72 71 70 69 68 69 69 70 70 70 71 71 73 72 73 72 72 72 72
62 65 67 72 73 71 69 70 70 71 70 71 71 69 67 67 67 70 70 70 71 71 73 70 71 70 70 70 70 69 70 70 70 71 72 70 73 73 72 73 72 72 72
63 65 69 70 71 71 70 70 70 71 70 69 70 70 68 69 70 70 70 69 70 72 71 71 70 70 70 70 69 70 69 70 70 70 70 71 70 73 74 73 72 72 71
65 66 68 70 71 72 72 71 71 69 69 69 70 70 69 70 69 70 69 68 70 72 71 71 71 71 70 70 70 69 69 69 70 69 70 72 71 73 74 74 73 72 71
66 67 69 68 71 72 72 72 70 68 69 69 69 68 70 70 70 71 69 68 69 71 71 70 70 69 69 69 68 69 69 68 69 69 69 70 70 70 73 74 73 72 72
68 68 69 69 70 72 72 70 69 68 67 67 67 68 68 69 70 70 69 68 69 70 71 71 68 69 68 68 67 67 68 68 69 68 68 69 69 71 72 73 72 71 72
67 69 69 70 70 71 71 71 69 67 67 66 65 68 67 68 69 69 70 68 68 68 70 71 69 68 67 67 66 67 68 69 70 70 68 68 69 71 71 71 71 72 72
67 69 70 70 71 70 70 69 67 66 66 65 65 67 67 66 67 68 69 69 69 68 69 70 69 67 67 67 66 65 65 68 68 70 69 68 68 70 71 71 72 71 70
67 68 69 69 70 70 69 68 67 67 67 67 69 68 67 67 67 68 68 69 68 67 69 70 68 67 67 67 64 63 61 64 67 68 69 69 68 69 70 71 71 70 71
68 68 69 69 68 69 69 68 68 68 66 66 66 66 68 67 67 68 68 69 69 70 68 69 69 66 66 68 67 63 59 61 63 66 67 68 68 67 69 70 71 71 70
66 68 69 69 70 69 69 68 67 66 64 65 65 67 67 67 68 67 68 68 70 70 68 70 69 66 66 66 65 66 65 65 61 61 64 67 68 67 68 70 69 70 70
66 68 69 70 71 70 68 67 66 65 66 66 65 65 67 68 68 67 67 68 70 70 70 68 69 68 67 65 62 64 65 64 64 60 60 63 67 67 68 68 69 69 70
64 66 69 70 69 67 66 66 66 65 65 66 66 66 67 68 69 68 67 68 69 70 69 68 69 69 67 65 65 65 64 61 61 61 59 61 62 65 67 68 68 68 68
Wind_Speed
23 21 16 14 15 15 15 14 15 15 15 15 14 13 13 13 12 12 13 13 12 11 11 10 9 7 4 6 7 11 15 17 18 18 17 16 14 13 13 15 19 17 16
28 23 18 16 14 13 12 13 14 15 15 15 15 14 13 12 11 10 10 13 11 9 11 10 8 9 5 7 9 11 14 16 16 17 16 15 13 11 7 6 21 17 16
22 21 19 16 14 12 10 10 14 16 16 14 15 14 12 12 12 8 10 10 9 8 9 9 8 7 7 8 10 9 13 15 15 18 19 14 11 10 12 18 20 17 17
22 19 18 16 14 12 10 11 15 15 15 15 14 14 13 11 11 10 7 7 8 6 8 9 8 7 7 9 11 9 12 14 13 12 12 16 14 12 14 16 18 17 17
20 18 22 17 15 13 12 12 13 15 15 15 14 12 13 12 10 10 8 5 5 5 6 8 8 8 7 9 9 10 10 11 13 12 10 7 15 13 14 15 15 16 17
20 25 24 17 15 13 12 13 13 14 14 14 13 13 11 12 11 9 7 6 4 5 5 7 8 9 9 10 9 10 11 11 11 7 7 14 16 15 14 15 16 15 18
26 24 22 20 15 14 12 12 13 14 15 14 14 14 13 11 11 9 7 6 5 4 4 7 8 9 9 10 12 10 12 10 8 11 9 16 15 15 12 13 16 16 16
22 21 18 19 17 16 12 13 14 14 15 15 14 13 12 11 11 11 9 6 6 5 5 6 10 10 9 10 10 11 11 11 12 11 15 15 16 15 14 15 15 16 16
19 22 18 15 14 15 14 14 15 16 15 15 15 14 13 11 10 10 9 7 7 7 6 7 9 10 10 10 11 11 13 12 10 3 15 15 17 16 15 15 15 15 16
18 19 17 15 15 13 13 15 15 16 15 14 14 14 13 12 11 10 7 9 8 9 8 8 10 10 11 10 11 12 12 12 10 9 13 14 17 16 16 15 15 14 15
13 15 15 15 14 15 15 15 16 17 16 15 14 15 14 11 12 11 11 10 8 8 9 9 10 11 11 11 11 12 11 9 12 8 12 26 18 18 16 15 14 16 14
9 11 13 14 15 14 13 14 11 13 12 9 9 11 10 11 9 7 8 7 7 8 8 9 10 11 12 11 11 12 10 13 7 10 11 23 19 18 16 15 15 14 15
10 13 16 12 14 12 11 12 8 7 8 8 8 5 9 1 5 6 7 8 8 8 8 10 10 10 13 11 11 13 13 9 3 10 15 19 18 16 15 15 15 15 15
18 16 15 14 11 10 9 3 10 10 11 10 10 10 8 6 6 5 7 7 6 6 7 5 8 10 9 13 13 13 12 7 10 9 14 19 18 16 16 16 15 15 15
11 14 12 16 14 13 21 27 30 16 15 13 12 11 8 6 7 9 7 6 4 7 5 7 8 7 8 10 10 16 14 11 13 9 11 19 18 17 16 16 16 16 16
13 12 12 9 7 9 10 19 18 14 13 3 12 10 11 7 7 8 9 8 6 6 8 5 6 6 8 10 10 12 12 12 12 14 16 16 20 17 16 17 17 17 17
16 14 14 11 10 10 9 10 10 10 7 15 15 9 10 11 9 12 10 10 7 7 7 7 5 5 6 8 12 11 10 11 13 8 10 13 15 19 17 16 17 17 16
16 16 16 14 12 9 8 7 6 8 8 8 10 10 17 13 13 9 10 10 8 5 6 8 7 6 9 9 9 8 12 13 7 13 15 7 15 14 17 16 15 14 15
11 14 13 12 14 13 8 7 6 7 5 7 10 15 11 14 12 13 11 11 12 8 8 8 8 8 7 9 7 6 4 8 9 10 9 16 16 11 14 18 14 14 16
14 12 9 9 8 9 7 6 7 8 11 9 10 12 15 14 16 13 12 13 14 13 10 8 9 9 6 10 9 7 10 10 11 9 9 5 11 13 14 13 13 10 19
18 14 10 9 9 11 9 10 10 12 11 11 1 5 10 11 13 14 13 14 10 13 13 12 8 9 6 4 7 5 9 7 10 10 9 8 7 12 12 11 10 8 11
17 13 10 9 10 10 8 9 9 5 9 11 7 8 9 11 14 14 14 13 14 14 12 12 12 7 6 8 4 1 3 7 13 12 10 10 11 14 13 12 14 15 17
17 13 12 11 8 8 8 6 6 6 10 10 13 10 10 12 14 15 15 14 14 13 15 13 13 14 10 7 11 6 3 4 1 6 10 10 10 11 14 14 17 18 20
10 12 11 11 10 5 3 6 7 10 12 10 10 10 12 14 12 13 15 16 14 12 17 12 12 13 9 9 8 14 15 3 2 2 3 8 8 11 13 14 17 17 18
10 16 13 11 9 5 1 4 4 5 10 11 12 12 12 11 11 13 15 15 14 13 15 15 14 14 13 13 13 5 14 10 9 5 1 2 8 8 12 14 12 10 13
21 17 14 9 7 2 2 8 7 8 13 10 11 9 10 10 9 12 14 15 15 15 15 15 13 13 15 19 10 11 10 7 3 3 3 5 7 9 13 12 13 12 12
Wind_Direction
133 140 142 136 132 135 138 142 142 144 140 135 129 121 118 113 110 108 110 109 119 121 120 126 122 115 91 85 107 107 110 110 115 112 108 108 115 119 128 130 108 105 106
132 142 139 136 135 134 141 151 154 149 147 145 138 132 129 124 119 122 127 112 111 115 119 120 121 126 104 106 123 130 124 122 126 123 122 119 118 109 110 137 99 112 111
132 133 138 134 129 124 130 149 157 155 156 153 144 141 138 135 129 132 140 124 124 125 128 129 126 127 119 122 123 132 135 138 144 142 142 131 119 112 107 109 115 119 119
131 140 132 130 124 115 124 138 150 155 159 157 150 145 142 138 137 144 138 133 134 139 142 142 142 143 136 138 138 142 152 151 154 159 182 130 133 120 117 121 121 124 124
133 142 128 128 121 115 113 127 143 152 158 160 155 151 144 141 147 151 138 140 159 150 156 155 160 159 152 152 152 151 167 164 168 175 211 141 127 130 125 124 129 131 135
136 120 127 129 125 122 118 118 139 151 158 161 160 155 152 148 154 156 156 169 190 182 168 161 163 167 168 163 164 164 185 187 179 200 108 120 119 139 144 148 139 135 125
102 119 128 132 130 127 124 124 134 153 161 161 162 160 159 160 160 168 166 167 179 185 194 165 168 164 176 174 171 177 215 197 201 183 141 112 129 143 144 138 134 138 134
123 118 128 133 139 132 134 134 139 146 158 163 167 163 166 163 174 166 174 177 173 194 198 195 180 167 185 174 181 187 219 224 183 229 138 125 144 141 143 141 143 144 140
124 119 126 134 137 135 146 147 147 152 162 166 169 170 168 175 182 179 181 189 174 195 195 197 190 177 180 179 187 196 224 237 261 262 126 133 146 147 150 150 151 153 146
124 127 129 143 152 157 155 155 159 163 168 174 177 180 179 178 189 195 191 204 181 199 200 199 197 189 180 185 189 201 229 246 256 213 136 142 153 153 156 159 157 159 154
134 123 147 151 158 164 159 166 162 166 174 185 184 188 182 188 192 191 197 196 184 196 201 200 200 190 176 183 196 201 228 244 238 98 136 147 158 155 163 164 164 162 165
155 135 144 165 164 169 165 164 167 170 175 180 188 192 210 212 170 197 205 164 202 189 200 197 202 185 189 183 191 201 218 233 206 120 141 148 157 160 165 170 170 169 170
159 157 148 173 175 186 152 166 176 180 189 192 191 189 218 206 127 165 173 214 204 203 197 191 190 192 202 219 195 192 216 241 269 148 156 152 158 163 169 174 176 179 178
174 170 162 171 169 169 157 21 207 200 208 198 196 191 182 207 204 199 187 210 211 183 211 194 193 205 252 209 188 194 206 203 225 131 157 167 163 167 174 183 184 187 186
140 137 147 166 172 161 143 169 228 202 207 208 188 181 182 203 228 204 213 201 216 215 203 197 215 218 213 217 217 218 202 197 215 174 172 180 173 174 182 185 192 196 198
147 148 143 166 159 146 170 168 193 204 216 221 237 187 194 211 209 217 205 215 217 227 208 186 205 209 216 223 219 229 211 204 215 220 185 183 180 183 187 192 195 202 201
157 161 156 171 176 176 183 176 198 217 192 175 207 199 200 198 226 222 214 212 211 195 225 185 181 207 222 221 229 209 209 210 207 194 176 189 187 187 194 200 201 209 200
158 159 161 181 182 180 189 191 206 226 193 211 223 214 199 200 208 218 223 200 199 210 208 198 176 207 223 227 212 220 210 218 222 206 190 159 198 187 197 201 208 211 203
153 156 169 174 176 175 192 209 203 240 252 249 219 207 193 190 210 220 233 225 183 212 195 210 196 201 232 237 222 220 261 206 208 235 220 174 200 176 181 197 201 223 215
165 158 174 175 182 170 190 219 223 234 219 234 246 189 203 198 192 221 234 232 190 194 198 208 203 221 221 229 225 220 228 204 203 243 259 197 185 181 178 166 185 235 229
162 164 166 185 177 181 198 206 228 233 240 252 263 342 222 229 215 202 222 232 218 206 186 192 206 228 238 211 229 238 247 246 223 218 229 235 228 190 171 176 168 205 283
153 157 175 197 190 196 213 228 239 243 247 260 288 274 266 224 228 212 209 230 209 208 194 191 194 201 216 214 211 207 258 238 231 216 193 220 222 193 184 175 178 202 218
136 164 186 187 214 219 232 246 262 274 263 262 254 255 248 254 239 216 208 218 222 196 197 189 192 196 201 217 216 222 226 227 215 216 210 212 232 199 183 190 194 201 207
164 164 183 184 200 195 254 246 247 269 280 273 263 243 241 244 238 226 211 212 221 200 202 185 188 201 178 234 234 247 252 206 180 233 184 220 217 211 193 197 208 191 197
172 144 130 136 112 116 293 284 305 296 279 288 281 258 241 228 231 227 211 207 212 209 203 186 180 192 180 208 219 219 250 228 215 250 357 248 229 203 196 197 206 199 202
304 130 128 113 127 107 8 33 15 314 310 305 296 263 242 218 216 219 217 206 203 206 192 186 184 190 191 213 208 252 265 241 232 234 277 220 215 197 201 203 182 192 201